QPF
0.00 0.00 0.00 0.00 0.00 0.00 0.01 0.03 0.09 0.07 0.04 0.03 0.01 0.00 0.00 0.00 0.00 0.00 0.00 0.00 0.00 0.00 0.00 0.00 0.00 0.00 0.00 0.00 0.00 0.00 0.00 0.01 0.01 0.01 0.01 0.01 0.01 0.02 0.05 0.04 0.05 0.06 0.09 0.14
0.00 0.01 0.00 0.00 0.00 0.00 0.00 0.00 0.04 0.07 0.04 0.01 0.00 0.00 0.00 0.00 0.00 0.00 0.00 0.00 0.00 0.00 0.00 0.00 0.00 0.00 0.00 0.00 0.00 0.00 0.00 0.00 0.00 0.01 0.00 0.00 0.01 0.01 0.03 0.03 0.04 0.04 0.04 0.07
0.01 0.02 0.00 0.00 0.00 0.00 0.00 0.01 0.08 0.15 0.06 0.01 0.01 0.05 0.05 0.03 0.01 0.00 0.00 0.00 0.00 0.00 0.00 0.00 0.00 0.00 0.00 0.00 0.00 0.00 0.00 0.00 0.00 0.00 0.00 0.00 0.00 0.01 0.01 0.01 0.02 0.02 0.02 0.05
0.00 0.00 0.00 0.00 0.00 0.00 0.03 0.02 0.02 0.04 0.03 0.03 0.05 0.18 0.21 0.13 0.08 0.02 0.00 0.00 0.00 0.00 0.00 0.00 0.00 0.00 0.00 0.00 0.00 0.00 0.00 0.00 0.00 0.00 0.00 0.00 0.00 0.00 0.00 0.00 0.01 0.01 0.01 0.02
0.00 0.00 0.00 0.00 0.00 0.00 0.01 0.01 0.01 0.02 0.03 0.05 0.14 0.29 0.29 0.18 0.14 0.05 0.01 0.01 0.02 0.01 0.00 0.00 0.00 0.00 0.00 0.00 0.00 0.00 0.00 0.00 0.01 0.01 0.00 0.00 0.00 0.00 0.00 0.00 0.00 0.00 0.00 0.00
0.00 0.00 0.00 0.00 0.00 0.00 0.00 0.00 0.01 0.04 0.08 0.18 0.34 0.41 0.38 0.17 0.12 0.03 0.01 0.01 0.01 0.00 0.00 0.00 0.00 0.00 0.00 0.00 0.00 0.00 0.00 0.00 0.01 0.00 0.00 0.00 0.01 0.01 0.00 0.00 0.00 0.00 0.00 0.00
0.01 0.01 0.00 0.00 0.00 0.01 0.00 0.00 0.04 0.23 0.36 0.36 0.30 0.30 0.30 0.09 0.02 0.01 0.00 0.00 0.00 0.00 0.00 0.00 0.00 0.00 0.00 0.00 0.00 0.00 0.00 0.00 0.00 0.00 0.00 0.00 0.00 0.01 0.01 0.01 0.01 0.01 0.00 0.00
0.03 0.02 0.00 0.00 0.00 0.01 0.00 0.00 0.01 0.05 0.08 0.13 0.14 0.21 0.17 0.02 0.00 0.00 0.00 0.00 0.00 0.00 0.00 0.00 0.00 0.00 0.00 0.00 0.00 0.00 0.00 0.00 0.00 0.00 0.00 0.00 0.00 0.00 0.00 0.00 0.01 0.00 0.00 0.00
0.03 0.02 0.00 0.00 0.00 0.00 0.00 0.00 0.00 0.00 0.00 0.03 0.09 0.12 0.06 0.01 0.00 0.00 0.00 0.00 0.00 0.00 0.00 0.00 0.00 0.00 0.00 0.00 0.00 0.00 0.00 0.00 0.00 0.00 0.00 0.00 0.00 0.00 0.00 0.00 0.00 0.00 0.00 0.00
0.00 0.00 0.00 0.00 0.00 0.00 0.00 0.00 0.00 0.00 0.00 0.01 0.03 0.08 0.08 0.02 0.00 0.00 0.00 0.00 0.00 0.00 0.00 0.00 0.00 0.00 0.00 0.00 0.00 0.00 0.00 0.00 0.00 0.00 0.00 0.00 0.00 0.00 0.00 0.00 0.00 0.00 0.00 0.00
0.00 0.00 0.00 0.00 0.00 0.00 0.00 0.00 0.00 0.00 0.00 0.00 0.00 0.02 0.01 0.00 0.00 0.00 0.00 0.00 0.00 0.00 0.00 0.00 0.00 0.00 0.00 0.00 0.00 0.00 0.00 0.00 0.00 0.00 0.00 0.00 0.00 0.00 0.00 0.00 0.00 0.01 0.01 0.01
0.00 0.00 0.01 0.01 0.00 0.00 0.00 0.00 0.00 0.00 0.00 0.00 0.00 0.00 0.00 0.00 0.00 0.00 0.00 0.00 0.00 0.00 0.00 0.00 0.00 0.00 0.00 0.00 0.00 0.00 0.00 0.00 0.00 0.00 0.00 0.00 0.00 0.00 0.00 0.00 0.00 0.01 0.01 0.01
0.00 0.00 0.01 0.03 0.02 0.00 0.00 0.00 0.00 0.00 0.00 0.00 0.00 0.00 0.00 0.00 0.00 0.00 0.00 0.00 0.00 0.00 0.00 0.00 0.00 0.00 0.00 0.00 0.00 0.00 0.00 0.00 0.00 0.00 0.00 0.00 0.00 0.00 0.01 0.01 0.00 0.01 0.01 0.01
0.00 0.00 0.00 0.01 0.01 0.00 0.00 0.00 0.00 0.00 0.00 0.00 0.00 0.00 0.00 0.00 0.00 0.00 0.00 0.00 0.00 0.00 0.00 0.00 0.00 0.00 0.00 0.00 0.00 0.00 0.00 0.00 0.00 0.00 0.00 0.00 0.01 0.01 0.01 0.01 0.01 0.01 0.01 0.01
0.00 0.00 0.00 0.00 0.00 0.00 0.00 0.00 0.00 0.00 0.00 0.00 0.00 0.00 0.00 0.00 0.00 0.00 0.00 0.00 0.00 0.00 0.00 0.00 0.00 0.00 0.00 0.00 0.00 0.00 0.00 0.00 0.00 0.00 0.01 0.01 0.01 0.01 0.01 0.01 0.01 0.01 0.01 0.01
0.00 0.00 0.00 0.00 0.00 0.00 0.00 0.00 0.00 0.00 0.00 0.00 0.00 0.00 0.00 0.00 0.00 0.00 0.00 0.00 0.00 0.00 0.00 0.00 0.00 0.00 0.00 0.00 0.00 0.00 0.00 0.00 0.01 0.01 0.01 0.01 0.01 0.01 0.01 0.01 0.01 0.02 0.02 0.03
0.00 0.00 0.00 0.00 0.00 0.00 0.00 0.00 0.00 0.00 0.00 0.00 0.00 0.00 0.00 0.00 0.00 0.00 0.00 0.00 0.00 0.00 0.00 0.00 0.00 0.00 0.00 0.00 0.00 0.00 0.00 0.01 0.01 0.01 0.01 0.01 0.01 0.01 0.01 0.02 0.02 0.03 0.04 0.06
0.00 0.00 0.00 0.00 0.00 0.00 0.00 0.00 0.00 0.00 0.00 0.00 0.00 0.00 0.00 0.00 0.00 0.00 0.00 0.00 0.00 0.00 0.00 0.00 0.00 0.00 0.00 0.00 0.00 0.00 0.00 0.01 0.01 0.01 0.01 0.01 0.02 0.02 0.02 0.02 0.03 0.05 0.07 0.07
0.00 0.00 0.00 0.00 0.00 0.00 0.00 0.00 0.00 0.00 0.00 0.00 0.00 0.00 0.00 0.00 0.00 0.00 0.00 0.00 0.00 0.00 0.00 0.00 0.00 0.00 0.00 0.00 0.00 0.01 0.01 0.01 0.01 0.01 0.01 0.01 0.02 0.02 0.02 0.03 0.05 0.07 0.07 0.07
0.00 0.00 0.00 0.00 0.00 0.00 0.00 0.00 0.00 0.00 0.00 0.00 0.00 0.00 0.00 0.00 0.00 0.00 0.00 0.00 0.00 0.00 0.00 0.00 0.00 0.00 0.00 0.00 0.01 0.01 0.01 0.01 0.01 0.01 0.01 0.01 0.02 0.03 0.03 0.05 0.07 0.07 0.07 0.08
0.00 0.00 0.00 0.00 0.00 0.00 0.00 0.00 0.00 0.00 0.00 0.00 0.00 0.00 0.00 0.00 0.00 0.00 0.00 0.00 0.00 0.00 0.00 0.00 0.00 0.00 0.00 0.01 0.01 0.02 0.01 0.02 0.02 0.01 0.01 0.01 0.02 0.03 0.04 0.06 0.08 0.07 0.08 0.09
0.00 0.00 0.00 0.00 0.00 0.00 0.00 0.00 0.00 0.00 0.00 0.00 0.00 0.00 0.00 0.00 0.00 0.00 0.00 0.00 0.00 0.00 0.00 0.00 0.00 0.00 0.01 0.01 0.02 0.02 0.02 0.02 0.01 0.01 0.01 0.01 0.02 0.03 0.03 0.06 0.07 0.08 0.10 0.09
0.00 0.00 0.00 0.00 0.00 0.00 0.00 0.00 0.00 0.00 0.00 0.00 0.00 0.00 0.00 0.00 0.00 0.00 0.00 0.00 0.00 0.00 0.00 0.00 0.00 0.00 0.01 0.01 0.02 0.02 0.02 0.02 0.01 0.01 0.02 0.02 0.02 0.04 0.06 0.08 0.08 0.08 0.10 0.10
0.00 0.00 0.00 0.00 0.00 0.00 0.00 0.00 0.00 0.00 0.00 0.00 0.00 0.00 0.00 0.00 0.00 0.00 0.00 0.00 0.00 0.00 0.00 0.00 0.00 0.00 0.01 0.01 0.01 0.02 0.02 0.02 0.02 0.02 0.02 0.02 0.02 0.03 0.05 0.09 0.09 0.09 0.09 0.08
0.00 0.00 0.00 0.00 0.00 0.00 0.00 0.00 0.00 0.00 0.00 0.00 0.00 0.00 0.00 0.00 0.00 0.00 0.00 0.00 0.00 0.00 0.00 0.00 0.00 0.00 0.01 0.01 0.01 0.01 0.01 0.02 0.02 0.01 0.01 0.01 0.02 0.04 0.05 0.09 0.10 0.06 0.05 0.03
0.00 0.00 0.00 0.00 0.00 0.00 0.00 0.00 0.00 0.00 0.00 0.00 0.00 0.00 0.00 0.00 0.00 0.00 0.00 0.00 0.00 0.00 0.00 0.00 0.00 0.00 0.00 0.01 0.01 0.01 0.01 0.01 0.02 0.01 0.01 0.02 0.02 0.04 0.06 0.09 0.10 0.06 0.02 0.01
MSLP
1006.85 1007.32 1007.69 1008.02 1008.34 1008.73 1009.22 1009.79 1010.42 1011.03 1011.55 1011.92 1012.11 1012.12 1011.98 1011.78 1011.60 1011.50 1011.52 1011.67 1011.92 1012.21 1012.47 1012.63 1012.67 1012.59 1012.42 1012.21 1012.03 1011.92 1011.91 1011.99 1012.12 1012.24 1012.29 1012.23 1012.01 1011.65 1011.19 1010.67 1010.18 1009.77 1009.48 1009.33
1007.34 1007.65 1007.88 1008.10 1008.39 1008.82 1009.41 1010.16 1010.97 1011.77 1012.42 1012.85 1013.00 1012.88 1012.54 1012.09 1011.64 1011.29 1011.11 1011.13 1011.33 1011.63 1011.95 1012.21 1012.36 1012.38 1012.28 1012.13 1011.99 1011.91 1011.93 1012.04 1012.21 1012.37 1012.46 1012.41 1012.18 1011.78 1011.23 1010.62 1010.03 1009.52 1009.17 1008.99
1007.70 1007.83 1007.90 1008.01 1008.25 1008.72 1009.43 1010.35 1011.37 1012.36 1013.18 1013.69 1013.85 1013.64 1013.13 1012.44 1011.72 1011.12 1010.73 1010.60 1010.71 1010.99 1011.35 1011.70 1011.94 1012.06 1012.06 1011.98 1011.88 1011.84 1011.88 1012.02 1012.22 1012.41 1012.52 1012.49 1012.26 1011.84 1011.26 1010.60 1009.94 1009.38 1008.98 1008.78
1007.92 1007.87 1007.77 1007.76 1007.96 1008.47 1009.29 1010.38 1011.61 1012.81 1013.80 1014.43 1014.62 1014.36 1013.72 1012.85 1011.91 1011.08 1010.48 1010.19 1010.19 1010.42 1010.80 1011.20 1011.53 1011.74 1011.82 1011.81 1011.76 1011.74 1011.80 1011.95 1012.16 1012.36 1012.50 1012.49 1012.29 1011.88 1011.31 1010.65 1009.97 1009.39 1008.96 1008.73
1008.02 1007.79 1007.54 1007.43 1007.60 1008.14 1009.06 1010.31 1011.72 1013.11 1014.26 1015.01 1015.26 1014.99 1014.28 1013.27 1012.17 1011.15 1010.38 1009.94 1009.83 1010.01 1010.38 1010.82 1011.20 1011.48 1011.63 1011.67 1011.65 1011.64 1011.70 1011.84 1012.03 1012.24 1012.40 1012.42 1012.26 1011.91 1011.39 1010.76 1010.11 1009.53 1009.09 1008.83
1008.06 1007.67 1007.30 1007.12 1007.26 1007.82 1008.81 1010.16 1011.71 1013.24 1014.53 1015.38 1015.70 1015.46 1014.72 1013.64 1012.43 1011.29 1010.39 1009.84 1009.65 1009.78 1010.13 1010.58 1011.00 1011.32 1011.51 1011.58 1011.57 1011.56 1011.59 1011.70 1011.87 1012.07 1012.23 1012.29 1012.20 1011.92 1011.48 1010.92 1010.32 1009.77 1009.32 1009.03
1008.10 1007.60 1007.15 1006.91 1007.02 1007.58 1008.59 1009.99 1011.60 1013.19 1014.55 1015.48 1015.85 1015.64 1014.92 1013.84 1012.59 1011.41 1010.45 1009.84 1009.59 1009.69 1010.02 1010.47 1010.92 1011.26 1011.47 1011.55 1011.53 1011.49 1011.48 1011.54 1011.68 1011.85 1012.02 1012.11 1012.08 1011.88 1011.53 1011.06 1010.54 1010.02 1009.58 1009.26
1008.20 1007.65 1007.15 1006.88 1006.95 1007.48 1008.45 1009.81 1011.39 1012.96 1014.31 1015.25 1015.65 1015.49 1014.82 1013.78 1012.58 1011.42 1010.48 1009.86 1009.61 1009.70 1010.03 1010.47 1010.92 1011.27 1011.48 1011.55 1011.51 1011.43 1011.37 1011.38 1011.46 1011.60 1011.76 1011.87 1011.89 1011.77 1011.51 1011.12 1010.67 1010.20 1009.77 1009.42
1008.39 1007.85 1007.35 1007.06 1007.10 1007.55 1008.43 1009.67 1011.12 1012.57 1013.83 1014.72 1015.11 1014.98 1014.38 1013.44 1012.34 1011.28 1010.42 1009.87 1009.66 1009.76 1010.09 1010.54 1010.98 1011.32 1011.52 1011.56 1011.50 1011.38 1011.26 1011.21 1011.23 1011.33 1011.46 1011.57 1011.62 1011.56 1011.36 1011.06 1010.66 1010.23 1009.81 1009.44
1008.67 1008.19 1007.74 1007.46 1007.46 1007.81 1008.54 1009.58 1010.82 1012.07 1013.16 1013.94 1014.29 1014.18 1013.67 1012.86 1011.91 1011.01 1010.29 1009.84 1009.70 1009.84 1010.19 1010.63 1011.05 1011.38 1011.56 1011.58 1011.48 1011.32 1011.16 1011.05 1011.02 1011.06 1011.15 1011.24 1011.28 1011.24 1011.09 1010.83 1010.49 1010.09 1009.69 1009.31
1009.00 1008.64 1008.28 1008.03 1008.00 1008.24 1008.78 1009.58 1010.55 1011.54 1012.41 1013.02 1013.30 1013.21 1012.79 1012.13 1011.38 1010.67 1010.12 1009.81 1009.76 1009.95 1010.31 1010.74 1011.14 1011.43 1011.58 1011.58 1011.46 1011.26 1011.06 1010.90 1010.82 1010.80 1010.83 1010.88 1010.90 1010.85 1010.71 1010.47 1010.15 1009.78 1009.39 1009.02
1009.33 1009.13 1008.89 1008.70 1008.65 1008.78 1009.13 1009.68 1010.36 1011.07 1011.69 1012.13 1012.31 1012.23 1011.91 1011.41 1010.86 1010.35 1009.99 1009.82 1009.87 1010.11 1010.46 1010.86 1011.22 1011.47 1011.58 1011.55 1011.40 1011.19 1010.97 1010.78 1010.64 1010.57 1010.55 1010.54 1010.51 1010.42 1010.26 1010.02 1009.70 1009.35 1008.97 1008.61
1009.61 1009.58 1009.49 1009.39 1009.33 1009.38 1009.56 1009.88 1010.28 1010.71 1011.09 1011.35 1011.46 1011.38 1011.15 1010.82 1010.46 1010.15 1009.96 1009.93 1010.05 1010.31 1010.64 1010.99 1011.28 1011.47 1011.53 1011.47 1011.31 1011.09 1010.86 1010.65 1010.49 1010.37 1010.29 1010.22 1010.13 1009.99 1009.78 1009.52 1009.19 1008.84 1008.48 1008.14
1009.81 1009.96 1010.01 1010.00 1009.98 1009.97 1010.02 1010.13 1010.30 1010.49 1010.66 1010.78 1010.81 1010.75 1010.61 1010.42 1010.24 1010.11 1010.06 1010.13 1010.30 1010.55 1010.84 1011.10 1011.31 1011.42 1011.43 1011.33 1011.16 1010.94 1010.72 1010.51 1010.34 1010.19 1010.07 1009.94 1009.78 1009.58 1009.32 1009.02 1008.67 1008.31 1007.96 1007.64
1009.92 1010.22 1010.40 1010.49 1010.50 1010.47 1010.42 1010.39 1010.38 1010.38 1010.40 1010.40 1010.39 1010.35 1010.29 1010.23 1010.19 1010.20 1010.27 1010.40 1010.59 1010.80 1011.00 1011.17 1011.27 1011.30 1011.24 1011.11 1010.93 1010.72 1010.52 1010.33 1010.16 1010.01 1009.85 1009.67 1009.45 1009.19 1008.88 1008.53 1008.15 1007.78 1007.43 1007.12
1009.95 1010.35 1010.64 1010.80 1010.85 1010.81 1010.71 1010.58 1010.45 1010.33 1010.23 1010.17 1010.13 1010.11 1010.13 1010.18 1010.26 1010.37 1010.52 1010.68 1010.84 1010.99 1011.10 1011.15 1011.14 1011.07 1010.94 1010.78 1010.59 1010.41 1010.24 1010.08 1009.93 1009.78 1009.60 1009.39 1009.13 1008.81 1008.44 1008.04 1007.63 1007.24 1006.87 1006.55
1009.95 1010.39 1010.72 1010.93 1011.00 1010.96 1010.83 1010.64 1010.43 1010.24 1010.08 1009.98 1009.94 1009.96 1010.04 1010.17 1010.34 1010.52 1010.70 1010.87 1010.99 1011.06 1011.07 1011.01 1010.89 1010.73 1010.55 1010.35 1010.17 1010.00 1009.87 1009.74 1009.62 1009.48 1009.31 1009.07 1008.77 1008.41 1007.99 1007.55 1007.09 1006.66 1006.27 1005.93
1009.93 1010.35 1010.67 1010.87 1010.94 1010.88 1010.73 1010.51 1010.27 1010.04 1009.86 1009.75 1009.72 1009.78 1009.91 1010.10 1010.33 1010.55 1010.75 1010.90 1010.98 1010.98 1010.90 1010.74 1010.54 1010.30 1010.07 1009.85 1009.67 1009.53 1009.43 1009.34 1009.25 1009.13 1008.95 1008.69 1008.36 1007.96 1007.50 1007.01 1006.51 1006.04 1005.61 1005.24
1009.92 1010.25 1010.51 1010.65 1010.68 1010.60 1010.42 1010.19 1009.93 1009.69 1009.51 1009.41 1009.40 1009.50 1009.67 1009.91 1010.17 1010.42 1010.63 1010.76 1010.80 1010.74 1010.59 1010.37 1010.10 1009.82 1009.56 1009.34 1009.17 1009.05 1008.97 1008.91 1008.84 1008.72 1008.54 1008.27 1007.91 1007.46 1006.96 1006.42 1005.89 1005.37 1004.90 1004.49
1009.91 1010.11 1010.25 1010.30 1010.26 1010.13 1009.93 1009.68 1009.42 1009.19 1009.02 1008.95 1008.97 1009.10 1009.32 1009.59 1009.87 1010.14 1010.35 1010.47 1010.48 1010.39 1010.20 1009.95 1009.65 1009.36 1009.09 1008.87 1008.71 1008.61 1008.55 1008.50 1008.44 1008.31 1008.11 1007.82 1007.42 1006.94 1006.40 1005.82 1005.24 1004.68 1004.18 1003.73
1009.85 1009.90 1009.89 1009.83 1009.70 1009.51 1009.28 1009.02 1008.77 1008.57 1008.43 1008.39 1008.46 1008.62 1008.87 1009.16 1009.47 1009.75 1009.96 1010.08 1010.09 1009.99 1009.80 1009.54 1009.25 1008.96 1008.70 1008.50 1008.36 1008.27 1008.22 1008.17 1008.09 1007.94 1007.71 1007.38 1006.95 1006.42 1005.84 1005.23 1004.61 1004.03 1003.50 1003.03
1009.67 1009.56 1009.42 1009.24 1009.02 1008.78 1008.51 1008.26 1008.04 1007.87 1007.78 1007.79 1007.90 1008.11 1008.38 1008.70 1009.03 1009.32 1009.54 1009.67 1009.69 1009.61 1009.43 1009.20 1008.94 1008.68 1008.45 1008.27 1008.15 1008.07 1008.01 1007.94 1007.83 1007.64 1007.37 1006.99 1006.51 1005.95 1005.33 1004.69 1004.05 1003.45 1002.91 1002.44
1009.32 1009.07 1008.79 1008.51 1008.22 1007.93 1007.66 1007.43 1007.25 1007.14 1007.11 1007.19 1007.35 1007.60 1007.92 1008.26 1008.60 1008.91 1009.14 1009.28 1009.33 1009.28 1009.14 1008.95 1008.73 1008.51 1008.33 1008.18 1008.07 1007.99 1007.91 1007.81 1007.66 1007.43 1007.10 1006.67 1006.14 1005.54 1004.89 1004.23 1003.59 1002.99 1002.46 1002.01
1008.72 1008.36 1007.99 1007.63 1007.29 1006.99 1006.74 1006.55 1006.43 1006.39 1006.45 1006.60 1006.83 1007.13 1007.48 1007.86 1008.22 1008.54 1008.79 1008.95 1009.03 1009.01 1008.92 1008.77 1008.61 1008.44 1008.29 1008.17 1008.07 1007.98 1007.89 1007.75 1007.55 1007.26 1006.88 1006.40 1005.83 1005.19 1004.52 1003.85 1003.22 1002.64 1002.14 1001.72
1007.88 1007.44 1007.01 1006.61 1006.26 1005.97 1005.75 1005.62 1005.58 1005.64 1005.78 1006.02 1006.32 1006.69 1007.09 1007.49 1007.88 1008.22 1008.48 1008.67 1008.77 1008.78 1008.73 1008.64 1008.52 1008.40 1008.28 1008.18 1008.09 1007.99 1007.87 1007.69 1007.45 1007.11 1006.67 1006.14 1005.54 1004.88 1004.20 1003.53 1002.91 1002.36 1001.90 1001.53
1006.84 1006.36 1005.90 1005.49 1005.15 1004.89 1004.73 1004.68 1004.72 1004.86 1005.10 1005.42 1005.81 1006.23 1006.69 1007.13 1007.54 1007.90 1008.19 1008.39 1008.51 1008.56 1008.55 1008.49 1008.41 1008.32 1008.23 1008.15 1008.06 1007.95 1007.79 1007.58 1007.28 1006.90 1006.42 1005.85 1005.22 1004.55 1003.87 1003.21 1002.62 1002.10 1001.68 1001.35
Thickness
5810 5794 5781 5784 5794 5798 5792 5775 5748 5752 5782 5781 5778 5768 5767 5769 5765 5757 5753 5752 5750 5749 5751 5751 5750 5749 5745 5742 5738 5735 5731 5729 5726 5723 5720 5719 5719 5720 5720 5721 5719 5717 5715 5714
5796 5780 5789 5801 5807 5808 5803 5788 5772 5766 5784 5782 5775 5769 5769 5766 5762 5759 5755 5751 5748 5746 5745 5744 5743 5743 5739 5735 5732 5729 5724 5720 5717 5713 5712 5712 5712 5712 5713 5713 5711 5710 5708 5707
5777 5774 5796 5802 5807 5803 5796 5783 5774 5766 5771 5776 5767 5753 5750 5757 5758 5759 5757 5754 5750 5745 5741 5739 5738 5736 5733 5729 5726 5722 5717 5712 5708 5704 5703 5703 5702 5703 5702 5701 5701 5702 5701 5700
5790 5798 5801 5801 5797 5796 5775 5789 5785 5771 5751 5747 5751 5719 5727 5737 5741 5746 5749 5749 5746 5744 5741 5737 5734 5730 5727 5724 5721 5716 5711 5705 5700 5696 5692 5688 5686 5686 5688 5689 5690 5691 5691 5691
5788 5805 5803 5796 5796 5799 5788 5798 5783 5765 5748 5736 5719 5696 5708 5728 5727 5737 5743 5746 5744 5741 5739 5733 5730 5726 5723 5719 5714 5709 5704 5698 5692 5687 5683 5679 5677 5676 5676 5676 5677 5679 5681 5682
5791 5813 5814 5809 5813 5812 5808 5795 5777 5756 5732 5701 5694 5681 5693 5717 5729 5737 5742 5743 5741 5739 5736 5732 5728 5724 5718 5714 5708 5702 5695 5689 5684 5679 5674 5670 5667 5665 5664 5664 5665 5667 5670 5672
5767 5795 5814 5819 5802 5799 5796 5778 5750 5718 5691 5688 5705 5689 5700 5732 5745 5744 5742 5741 5741 5738 5734 5728 5723 5717 5711 5706 5701 5695 5688 5681 5676 5671 5667 5662 5659 5657 5656 5657 5658 5657 5658 5659
5745 5758 5796 5809 5797 5782 5786 5782 5754 5732 5727 5716 5705 5701 5718 5746 5750 5751 5749 5745 5741 5738 5733 5725 5719 5713 5706 5701 5694 5688 5681 5674 5669 5664 5660 5656 5653 5651 5650 5648 5647 5646 5647 5649
5763 5767 5804 5808 5808 5797 5784 5782 5790 5772 5766 5740 5721 5722 5731 5748 5747 5747 5746 5743 5738 5734 5728 5721 5715 5708 5701 5694 5687 5681 5675 5668 5663 5658 5654 5650 5648 5644 5641 5639 5638 5639 5639 5640
5791 5775 5796 5805 5808 5802 5795 5789 5777 5761 5744 5738 5739 5726 5720 5732 5738 5741 5740 5738 5734 5729 5722 5716 5708 5702 5695 5689 5682 5676 5669 5663 5658 5653 5648 5645 5640 5636 5634 5632 5630 5629 5629 5629
5797 5775 5781 5794 5783 5776 5780 5776 5769 5764 5758 5736 5733 5722 5744 5740 5740 5738 5737 5735 5728 5722 5715 5708 5702 5696 5690 5683 5676 5669 5663 5656 5651 5646 5641 5636 5632 5629 5626 5624 5622 5621 5620 5618
5796 5782 5766 5774 5788 5794 5785 5773 5766 5744 5740 5749 5745 5725 5755 5750 5747 5741 5735 5730 5724 5716 5709 5703 5696 5689 5682 5675 5668 5661 5655 5649 5644 5639 5633 5628 5624 5621 5618 5616 5614 5612 5609 5608
5785 5772 5752 5746 5756 5776 5781 5777 5771 5760 5751 5745 5737 5729 5755 5755 5747 5740 5731 5723 5717 5710 5703 5696 5689 5681 5674 5667 5660 5654 5648 5642 5636 5631 5625 5620 5616 5612 5609 5607 5604 5602 5599 5596
5784 5773 5759 5746 5754 5770 5771 5774 5770 5756 5741 5734 5736 5736 5747 5743 5736 5732 5725 5719 5712 5704 5696 5688 5681 5674 5667 5660 5654 5647 5641 5635 5629 5623 5617 5611 5607 5604 5601 5598 5594 5591 5587 5583
5785 5770 5771 5774 5780 5777 5771 5768 5765 5753 5745 5734 5735 5735 5739 5737 5733 5728 5723 5715 5706 5697 5689 5682 5674 5668 5661 5654 5647 5641 5634 5628 5622 5615 5609 5604 5601 5597 5593 5589 5585 5580 5576 5571
5782 5763 5763 5764 5776 5775 5768 5769 5763 5755 5751 5744 5739 5736 5744 5740 5734 5725 5717 5708 5700 5692 5684 5677 5670 5662 5655 5647 5641 5634 5628 5621 5614 5607 5602 5597 5593 5589 5585 5580 5576 5571 5565 5559
5775 5764 5752 5749 5767 5766 5754 5769 5763 5757 5756 5746 5733 5735 5739 5731 5724 5719 5714 5706 5696 5687 5679 5671 5664 5656 5649 5643 5636 5628 5621 5615 5608 5601 5595 5590 5586 5582 5577 5572 5567 5561 5555 5548
5769 5758 5751 5748 5750 5731 5762 5783 5773 5758 5753 5752 5747 5741 5734 5728 5724 5721 5714 5700 5689 5682 5674 5665 5658 5652 5646 5639 5631 5623 5616 5608 5601 5595 5589 5584 5579 5574 5570 5564 5558 5552 5545 5539
5782 5761 5748 5741 5736 5747 5764 5772 5767 5751 5744 5755 5744 5736 5733 5731 5720 5710 5704 5696 5686 5678 5669 5662 5655 5649 5642 5635 5627 5618 5610 5603 5596 5590 5584 5578 5573 5568 5563 5558 5552 5546 5539 5533
5782 5768 5749 5741 5728 5725 5756 5774 5774 5754 5734 5745 5740 5731 5726 5721 5704 5703 5701 5694 5685 5676 5668 5660 5653 5646 5638 5630 5622 5612 5605 5598 5591 5584 5578 5573 5568 5563 5559 5553 5547 5541 5535 5529
5758 5753 5745 5740 5735 5748 5767 5770 5765 5732 5724 5740 5738 5730 5723 5714 5705 5703 5700 5692 5682 5674 5666 5658 5649 5641 5633 5626 5617 5608 5600 5593 5586 5579 5573 5569 5565 5560 5556 5551 5545 5538 5532 5527
5761 5753 5749 5747 5735 5737 5762 5760 5747 5741 5748 5744 5737 5732 5724 5716 5711 5704 5696 5687 5679 5670 5663 5654 5645 5637 5630 5622 5613 5604 5596 5589 5582 5575 5570 5566 5562 5558 5555 5548 5542 5537 5531 5526
5771 5769 5762 5755 5749 5759 5766 5761 5761 5759 5748 5743 5737 5733 5724 5714 5706 5700 5692 5683 5675 5667 5659 5651 5643 5635 5627 5619 5609 5600 5593 5586 5578 5572 5568 5564 5560 5557 5553 5547 5541 5536 5530 5525
5773 5779 5764 5756 5760 5765 5767 5768 5766 5760 5751 5746 5739 5731 5722 5711 5704 5696 5688 5680 5671 5664 5655 5648 5640 5631 5624 5616 5607 5598 5590 5582 5575 5569 5565 5562 5559 5556 5552 5546 5540 5535 5530 5524
5766 5764 5757 5753 5760 5763 5765 5765 5763 5759 5754 5747 5739 5731 5721 5711 5701 5693 5684 5676 5668 5660 5653 5645 5637 5628 5621 5613 5604 5596 5587 5579 5572 5566 5563 5560 5557 5555 5550 5546 5540 5535 5530 5521
5770 5765 5756 5752 5762 5757 5756 5762 5764 5756 5750 5744 5735 5726 5719 5709 5699 5690 5681 5673 5665 5657 5650 5642 5634 5626 5619 5611 5602 5593 5584 5576 5569 5565 5561 5558 5555 5553 5549 5545 5542 5535 5528 5521